This demonstration page uses our WeatherBlox Daily Observations layout. Learn more.

Hourly Observations for January 12, 2020

Temp ( °F °C ) Dew Point ( °F °C ) Humidity (%) Winds ( mph kmh ) Pressure ( in mb ) Visibility ( mi km ) Precip ( " mm )
12:15 am 00:15 Cloudy 63 17 63 17 100 100 S 15 24 29.88 1012 3 4.828032 0 0
12:35 am 00:35 Cloudy 63 17 63 17 100 100 SSW 14 22 29.91 1013 7 11.265408 0 0
12:55 am 00:55 Cloudy 63 17 61 16 94 94 SSW 12 19 29.88 1012 7 11.265408 0 0
1:15 am 01:15 Cloudy 61 16 61 16 100 100 S 21 33 29.85 1011 7 11.265408 0 0
1:35 am 01:35 Mostly Cloudy 61 16 61 16 100 100 S 17 28 29.83 1010 10 16.09344 0 0
1:55 am 01:55 Partly Cloudy 61 16 61 16 100 100 WSW 13 20 29.83 1010 10 16.09344 0 0
2:15 am 02:15 Cloudy 61 16 61 16 100 100 SSW 15 24 29.88 1012 10 16.09344 0 0
2:35 am 02:35 Cloudy 61 16 61 16 100 100 S 18 30 29.88 1012 10 16.09344 0 0
2:55 am 02:55 Mostly Cloudy 61 16 61 16 100 100 S 15 24 29.88 1012 10 16.09344 0 0
3:15 am 03:15 Cloudy 61 16 61 16 100 100 S 14 22 29.85 1011 10 16.09344 0 0
3:35 am 03:35 Cloudy 61 16 61 16 100 100 SSW 13 20 29.85 1011 10 16.09344 0 0
3:55 am 03:55 Cloudy 61 16 61 16 100 100 SSW 15 24 29.88 1012 10 16.09344 0 0
4:15 am 04:15 Cloudy 61 16 61 16 100 100 SSW 14 22 29.88 1012 10 16.09344 0 0
4:35 am 04:35 Cloudy 61 16 61 16 100 100 SSW 15 24 29.88 1012 10 16.09344 0 0
4:55 am 04:55 Cloudy 61 16 61 16 100 100 WSW 8 13 29.91 1013 10 16.09344 0 0
5:15 am 05:15 Cloudy 61 16 61 16 100 100 WNW 12 19 29.94 1014 10 16.09344 0 0
5:35 am 05:35 Partly Cloudy 59 15 59 15 100 100 W 7 11 29.94 1014 10 16.09344 0 0
5:55 am 05:55 Partly Cloudy 59 15 59 15 100 100 W 9 15 29.94 1014 10 16.09344 0 0
6:15 am 06:15 Clear 61 16 55 13 83 83 WSW 9 15 29.97 1015 10 16.09344 0 0
6:35 am 06:35 Clear 59 15 57 14 94 94 W 8 13 30 1016 10 16.09344 0 0
6:55 am 06:55 Clear 61 16 48 9 63 63 W 15 24 30.03 1017 10 16.09344 0 0
7:15 am 07:15 Clear 59 15 46 8 63 63 NW 15 24 30.06 1018 10 16.09344 0 0
7:35 am 07:35 Sunny 59 15 45 7 59 59 WNW 13 20 30.06 1018 10 16.09344 0 0
7:55 am 07:55 Sunny 57 14 45 7 63 63 WNW 12 19 30.09 1019 10 16.09344 0 0
8:15 am 08:15 Sunny 57 14 43 6 59 59 WNW 10 17 30.12 1020 10 16.09344 0 0
8:35 am 08:35 Sunny 59 15 43 6 55 55 WNW 15 24 30.12 1020 10 16.09344 0 0
8:55 am 08:55 Sunny 59 15 45 7 59 59 WNW 16 26 30.15 1021 10 16.09344 0 0
9:15 am 09:15 Sunny 59 15 45 7 59 59 W 16 26 30.18 1022 10 16.09344 0 0
9:35 am 09:35 Sunny 59 15 45 7 59 59 WNW 14 22 30.18 1022 10 16.09344 0 0
9:55 am 09:55 Sunny 61 16 45 7 55 55 WNW 14 22 30.18 1022 10 16.09344 0 0
10:15 am 10:15 Sunny 61 16 45 7 55 55 NW 20 31 30.21 1023 10 16.09344 0 0
10:35 am 10:35 Sunny 61 16 43 6 52 52 NW 24 39 30.21 1023 10 16.09344 0 0
10:55 am 10:55 Sunny 61 16 43 6 52 52 W 16 26 30.24 1024 10 16.09344 0 0
11:15 am 11:15 Sunny 61 16 43 6 52 52 W 8 13 30.24 1024 10 16.09344 0 0
11:35 am 11:35 Sunny 61 16 43 6 52 52 NW 20 31 30.21 1023 10 16.09344 0 0
11:55 am 11:55 Sunny 63 17 43 6 49 49 NW 17 28 30.24 1024 10 16.09344 0 0
12:15 pm 12:15 Sunny 63 17 43 6 49 49 NW 14 22 30.21 1023 10 16.09344 0 0
12:35 pm 12:35 Sunny 63 17 43 6 49 49 NW 12 19 30.21 1023 10 16.09344 0 0
12:55 pm 12:55 Sunny 63 17 45 7 52 52 NW 10 17 30.21 1023 10 16.09344 0 0
1:15 pm 13:15 Sunny 64 18 45 7 49 49 WNW 9 15 30.21 1023 10 16.09344 0 0
1:35 pm 13:35 Sunny 64 18 43 6 46 46 WNW 8 13 30.21 1023 10 16.09344 0 0
1:55 pm 13:55 Sunny 64 18 43 6 46 46 NW 10 17 30.24 1024 10 16.09344 0 0
2:15 pm 14:15 Sunny 64 18 43 6 46 46 NNW 7 11 30.24 1024 10 16.09344 0 0
2:35 pm 14:35 Sunny 64 18 43 6 46 46 NNW 12 19 30.24 1024 10 16.09344 0 0
2:55 pm 14:55 Sunny 63 17 43 6 49 49 N 8 13 30.24 1024 10 16.09344 0 0
3:15 pm 15:15 Sunny 63 17 43 6 49 49 N 13 20 30.24 1024 10 16.09344 0 0
3:35 pm 15:35 Sunny 63 17 43 6 49 49 N 10 17 30.24 1024 10 16.09344 0 0
3:55 pm 15:55 Sunny 63 17 43 6 49 49 N 10 17 30.27 1025 10 16.09344 0 0
4:15 pm 16:15 Sunny 61 16 43 6 52 52 N 8 13 30.27 1025 10 16.09344 0 0
4:35 pm 16:35 Sunny 61 16 43 6 52 52 N 7 11 30.27 1025 10 16.09344 0 0
4:55 pm 16:55 Sunny 59 15 43 6 55 55 NNE 9 15 30.27 1025 10 16.09344 0 0
5:55 pm 17:55 Clear 54 12 43 6 67 67 NNE 5 7 30.36 1028 10 16.09344 0 0
6:15 pm 18:15 Clear 54 12 43 6 67 67 N 6 9 30.36 1028 10 16.09344 0 0
6:35 pm 18:35 Clear 52 11 43 6 72 72 N 7 11 30.36 1028 10 16.09344 0 0
6:55 pm 18:55 Clear 52 11 43 6 72 72 N 8 13 30.36 1028 10 16.09344 0 0
7:15 pm 19:15 Clear 50 10 41 5 71 71 NNE 7 11 30.39 1029 10 16.09344 0 0
7:35 pm 19:35 Clear 50 10 41 5 71 71 N 7 11 30.39 1029 10 16.09344 0 0
7:55 pm 19:55 Clear 50 10 41 5 71 71 NNE 5 7 30.39 1029 10 16.09344 0 0
8:15 pm 20:15 Clear 50 10 41 5 71 71 NE 6 9 30.39 1029 10 16.09344 0 0
8:35 pm 20:35 Clear 48 9 41 5 76 76 Calm 30.39 1029 10 16.09344 0 0
8:55 pm 20:55 Clear 46 8 41 5 82 82 N 3 6 30.39 1029 10 16.09344 0 0
9:15 pm 21:15 Clear 46 8 41 5 82 82 NNE 6 9 30.39 1029 10 16.09344 0 0
9:35 pm 21:35 Clear 46 8 41 5 82 82 NNE 3 6 30.39 1029 10 16.09344 0 0
9:55 pm 21:55 Clear 46 8 41 5 82 82 Calm 30.42 1030 10 16.09344 0 0
10:15 pm 22:15 Clear 45 7 41 5 87 87 NNE 3 6 30.42 1030 10 16.09344 0 0
10:35 pm 22:35 Clear 45 7 41 5 87 87 NE 3 6 30.42 1030 10 16.09344 0 0
10:55 pm 22:55 Clear 45 7 41 5 87 87 Calm 30.42 1030 10 16.09344 0 0
11:15 pm 23:15 Clear 43 6 41 5 93 93 N 5 7 30.42 1030 10 16.09344 0 0
11:35 pm 23:35 Clear 43 6 39 4 87 87 N 5 7 30.42 1030 10 16.09344 0 0
11:55 pm 23:55 Clear 43 6 41 5 93 93 NE 3 6 30.42 1030 10 16.09344 0 0

Powered by AerisWeather